KB8DLR Weather Reports


Display with metric or nautical units.
time (UTC)temp
F
wind
direction
speed
MPH
gust
MPH
rain 1hr
in
rain 24hr
in
rain mn
in
humidity
%
barometer
mb
20260510201024 79 20 2.0 2.0 0.00 0.00 0.00 43 1017.0
20260510200017 79 348 1.0 2.0 0.00 0.00 0.00 43 1017.0
20260510195021 79 38 1.0 3.0 0.00 0.00 0.00 41 1017.1
20260510194019 82 16 1.0 3.0 0.00 0.00 0.00 41 1017.2
20260510193018 80 105 1.0 3.0 0.00 0.00 0.00 41 1017.2
20260510192016 80 40 1.0 3.0 0.00 0.00 0.00 41 1017.2
20260510191021 82 225 1.0 3.0 0.00 0.00 0.00 40 1017.2
20260510190024 83 0 0.0 2.0 0.00 0.00 0.00 41 1017.2
20260510185028 82 10 2.0 3.0 0.00 0.00 0.00 41 1017.2
20260510184032 81 23 0.0 2.0 0.00 0.00 0.00 43 1017.1
20260510183019 81 68 1.0 2.0 0.00 0.00 0.00 42 1017.0
20260510182022 81 330 1.0 2.0 0.00 0.00 0.00 41 1017.3
20260510181027 80 3 1.0 2.0 0.00 0.00 0.00 41 1017.2
20260510180051 79 0 1.0 3.0 0.00 0.00 0.00 44 1016.7
20260510175017 78 31 0.0 2.0 0.00 0.00 0.00 44 1016.9
20260510174021 77 359 2.0 3.0 0.00 0.00 0.00 44 1017.0
20260510173025 77 21 2.0 3.0 0.00 0.00 0.00 44 1017.2
20260510172029 77 88 2.0 6.0 0.00 0.00 0.00 43 1017.0
20260510171017 76 15 1.0 2.0 0.00 0.00 0.00 43 1017.0
20260510170021 75 21 2.0 3.0 0.00 0.00 0.00 43 1017.2
20260510165024 77 3 2.0 2.0 0.00 0.00 0.00 45 1017.2
20260510164028 77 359 1.0 2.0 0.00 0.00 0.00 48 1017.2
20260510163033 76 5 1.0 4.0 0.00 0.00 0.00 48 1017.2
20260510162019 75 358 1.0 2.0 0.00 0.00 0.00 48 1017.2
20260510161024 74 3 1.0 4.0 0.00 0.00 0.00 51 1017.0
20260510160047 73 83 1.0 4.0 0.00 0.00 0.00 52 1017.0
20260510155032 71 7 1.0 2.0 0.00 0.00 0.00 57 1017.0
20260510154017 69 8 1.0 2.0 0.00 0.00 0.00 60 1016.9
20260510153021 68 7 1.0 3.0 0.00 0.00 0.00 61 1016.7
20260510152026 67 357 1.0 2.0 0.00 0.00 0.00 62 1016.6
20260510151030 66 63 1.0 3.0 0.00 0.00 0.00 64 1016.3
20260510150016 68 353 2.0 2.0 0.00 0.00 0.00 62 1016.1
20260510145020 66 56 1.0 2.0 0.00 0.00 0.00 69 1016.0
20260510144025 64 4 1.0 2.0 0.00 0.00 0.00 71 1015.9
20260510143043 61 354 1.0 2.0 0.00 0.00 0.00 74 1015.8
20260510142015 61 2 1.0 2.0 0.00 0.00 0.00 74 1015.8
20260510141039 60 17 2.0 2.0 0.00 0.00 0.00 75 1015.7
20260510140018 60 43 1.0 2.0 0.00 0.00 0.00 76 1015.7
20260510135016 60 3 1.0 2.0 0.00 0.00 0.00 75 1015.8
20260510134031 60 0.0 1.0 0.00 0.00 0.00 77 1015.7
20260510133017 59 94 1.0 2.0 0.00 0.00 0.00 78 1015.6
20260510132022 58 0 0.0 1.0 0.00 0.00 0.00 80 1015.2
20260510131026 58 23 0.0 1.0 0.00 0.01 0.00 82 1015.1
20260510130030 57 23 0.0 1.0 0.00 0.01 0.00 84 1015.2
20260510125016 56 0.0 0.0 0.00 0.02 0.00 86 1015.0
20260510124020 56 0.0 0.0 0.00 0.02 0.00 86 1014.9
20260510123026 56 0 0.0 1.0 0.00 0.02 0.00 87 1014.8
20260510122029 56 15 1.0 1.0 0.00 0.02 0.00 86 1014.6
20260510121015 57 0.0 0.0 0.00 0.02 0.00 87 1014.4
20260510120019 56 0.0 0.0 0.00 0.02 0.00 90 1014.4
20260510115023 56 45 0.0 1.0 0.00 0.03 0.00 93 1014.2
20260510114047 55 11 1.0 2.0 0.00 0.03 0.00 95 1014.0
20260510113031 55 0.0 2.0 0.00 0.03 0.00 99 1013.9
20260510112017 55 0.0 0.0 0.00 0.03 0.00 99 1013.9
20260510111022 54 0.0 0.0 0.00 0.05 0.00 99 1013.6
20260510110026 54 0.0 0.0 0.00 0.06 0.00 99 1013.2
20260510105030 54 0.0 0.0 0.00 0.07 0.00 99 1013.0
20260510104016 54 0.0 0.0 0.00 0.08 0.00 99 1012.8
20260510103020 54 0.0 0.0 0.00 0.09 0.00 99 1012.5
20260510102024 53 0.0 0.0 0.00 0.10 0.00 99 1012.3
20260510101029 53 0.0 0.0 0.00 0.10 0.00 99 1012.2
20260510100035 53 0.0 0.0 0.00 0.11 0.00 99 1012.2
20260510095019 53 0.0 0.0 0.00 0.11 0.00 99 1012.1
20260510094023 54 0.0 0.0 0.00 0.12 0.00 99 1011.9
20260510093108 54 0.0 0.0 0.00 0.13 0.00 99 1011.7
20260510092025 54 0.0 0.0 0.00 0.14 0.00 99 1011.5
20260510091017 55 0.0 0.0 0.00 0.15 0.00 99 1011.2
20260510090021 55 0.0 0.0 0.00 0.15 0.00 99 1010.8
20260510085020 56 0.0 0.0 0.00 0.16 0.00 99 1010.9
20260510084039 57 0.0 0.0 0.00 0.16 0.00 99 1010.8
20260510083016 57 0.0 0.0 0.00 0.17 0.00 99 1010.8
20260510082020 58 0.0 0.0 0.00 0.17 0.00 99 1010.7
20260510081024 58 0.0 0.0 0.00 0.18 0.00 99 1010.4
20260510080029 58 0.0 0.0 0.00 0.19 0.00 99 1010.3
20260510075014 59 0.0 0.0 0.00 0.19 0.00 97 1010.3
20260510074019 59 0.0 0.0 0.00 0.20 0.00 97 1010.4
20260510073023 60 0.0 0.0 0.00 0.21 0.00 96 1010.4
20260510072028 60 185 0.0 3.0 0.00 0.21 0.00 96 1010.5
20260510071052 61 0.0 0.0 0.00 0.22 0.00 94 1010.5
20260510070018 61 225 0.0 2.0 0.00 0.22 0.00 93 1010.5
20260510065022 61 203 0.0 1.0 0.00 0.23 0.00 92 1010.4
20260510064026 62 138 0.0 3.0 0.00 0.23 0.00 91 1010.4
20260510063030 62 192 1.0 3.0 0.00 0.23 0.00 91 1010.8
20260510062038 62 192 2.0 5.0 0.00 0.23 0.00 91 1010.8
20260510061021 62 0.0 0.0 0.00 0.23 0.00 91 1010.8
20260510060025 62 219 1.0 2.0 0.00 0.23 0.00 91 1010.5
20260510055029 62 186 1.0 3.0 0.00 0.23 0.00 90 1010.5
20260510054015 62 201 2.0 4.0 0.00 0.23 0.00 90 1010.5
20260510053020 62 206 2.0 4.0 0.00 0.23 0.00 90 1010.5
20260510052023 63 189 1.0 2.0 0.00 0.23 0.00 89 1010.4
20260510051035 63 191 1.0 3.0 0.00 0.24 0.00 88 1010.3
20260510050020 63 185 2.0 6.0 0.00 0.24 0.00 88 1010.2
20260510045018 63 205 3.0 4.0 0.00 0.24 0.00 88 1010.1
20260510044016 63 190 2.0 5.0 0.00 0.24 0.00 88 1010.0
20260510043032 63 194 2.0 5.0 0.00 0.24 0.00 87 1010.0
20260510042038 63 203 2.0 3.0 0.00 0.24 0.00 87 1010.0
20260510041022 63 166 2.0 6.0 0.00 0.24 0.00 86 1010.0
20260510040026 63 206 2.0 5.0 0.00 0.24 0.00 86 1009.8
20260510035031 63 197 2.0 3.0 0.00 0.24 0.24 86 1009.7
20260510034017 63 195 2.0 5.0 0.00 0.24 0.24 86 1009.6
20260510033021 62 209 2.0 2.0 0.00 0.24 0.24 86 1009.6
20260510032026 62 193 1.0 2.0 0.00 0.24 0.24 87 1009.6
20260510031030 61 158 0.0 2.0 0.00 0.24 0.24 86 1009.5
20260510030016 62 0.0 0.0 0.00 0.24 0.24 86 1009.5
20260510025040 62 191 0.0 2.0 0.00 0.24 0.24 85 1009.5
20260510024024 62 214 0.0 2.0 0.00 0.24 0.24 85 1009.5
20260510023028 62 148 0.0 2.0 0.00 0.24 0.24 85 1009.3
20260510022032 62 195 0.0 2.0 0.00 0.24 0.24 85 1009.3
20260510021019 61 180 0.0 3.0 0.00 0.24 0.24 86 1009.0
20260510020023 61 176 0.0 2.0 0.00 0.24 0.24 88 1009.0
20260510015108 61 0.0 1.0 0.00 0.24 0.24 87 1008.8
20260510014031 61 0.0 0.0 0.00 0.24 0.24 88 1008.7
20260510013018 62 0.0 0.0 0.00 0.24 0.24 85 1008.7
20260510012021 63 0.0 0.0 0.00 0.24 0.24 82 1008.4
20260510011026 64 0.0 0.0 0.00 0.24 0.24 79 1008.5
20260510010030 65 0.0 0.0 0.00 0.24 0.24 75 1008.3
20260510005016 66 191 0.0 1.0 0.00 0.24 0.24 74 1008.2
20260510004020 67 131 0.0 2.0 0.00 0.24 0.24 71 1008.0
20260510003024 68 205 1.0 3.0 0.00 0.24 0.24 69 1007.9
20260510002028 69 199 1.0 2.0 0.00 0.24 0.24 68 1007.7
20260510001027 69 198 1.0 2.0 0.00 0.24 0.24 67 1007.7
20260510000019 70 198 1.0 4.0 0.00 0.24 0.24 65 1007.6
20260509235023 70 204 2.0 3.0 0.00 0.24 0.24 65 1007.5
20260509234021 70 200 2.0 6.0 0.00 0.24 0.24 65 1007.4
20260509233039 71 192 3.0 6.0 0.00 0.24 0.24 64 1007.4
20260509232018 71 186 3.0 4.0 0.00 0.24 0.24 63 1007.3
20260509231016 71 212 2.0 8.0 0.00 0.24 0.24 63 1007.4
20260509230026 71 189 3.0 5.0 0.00 0.24 0.24 63 1007.4
20260509225030 72 215 3.0 7.0 0.00 0.24 0.24 63 1007.4
20260509224016 72 196 3.0 6.0 0.00 0.24 0.24 62 1007.4
20260509223020 72 205 2.0 6.0 0.00 0.24 0.24 63 1007.3
20260509222024 72 181 3.0 6.0 0.00 0.24 0.24 63 1007.3
20260509221028 73 205 2.0 5.0 0.00 0.24 0.24 61 1007.5
20260509220033 74 209 3.0 6.0 0.00 0.24 0.24 61 1007.5
20260509215019 75 172 3.0 6.0 0.00 0.24 0.24 60 1007.6
20260509214023 76 206 3.0 5.0 0.00 0.24 0.24 59 1007.6
20260509213028 75 178 3.0 6.0 0.00 0.24 0.24 59 1007.8
20260509212032 76 200 3.0 5.0 0.00 0.24 0.24 59 1007.7
20260509211017 76 204 3.0 6.0 0.00 0.24 0.24 59 1007.8
20260509210022 76 229 4.0 6.0 0.00 0.24 0.24 59 1007.8
20260509205026 77 193 3.0 7.0 0.00 0.24 0.24 60 1007.8
20260509204050 76 193 4.0 6.0 0.00 0.24 0.24 60 1007.8
20260509203017 76 188 3.0 5.0 0.00 0.24 0.24 61 1007.9
20260509202020 77 205 4.0 6.0 0.00 0.24 0.24 59 1008.0